RH
43 46 43 41 42 39 38 35 37 36 38 41 37 37 40 40 40 37 37 41 38 44 52 52 63 65 53 48 50 45 40 40 35 25 27 37 39 43 48 50 54 63 66 70 85 88 78 75 71 60 45 22 7 6 7 8 9 12 13 16 18 24 34 48 60 60 72 66 64 81 63 50 52 47 48 47 59 79 88 95 99 99 100 100 99 99 98 97 96 98 98 98 100 84 72 68 46
44 45 41 39 39 39 38 34 39 40 41 46 38 36 39 38 39 35 33 36 39 47 52 54 63 62 47 44 50 46 43 44 39 31 32 36 36 44 47 48 53 59 63 72 88 88 78 73 63 45 24 8 6 9 9 11 13 16 17 22 28 41 57 73 83 81 87 89 86 77 59 57 54 50 50 46 58 83 97 98 98 99 100 99 100 99 98 99 98 99 98 98 97 84 83 74 36
44 43 38 35 36 38 37 35 42 43 44 48 39 35 38 36 33 32 38 42 43 49 49 55 62 58 47 42 47 43 41 41 38 36 35 35 36 42 45 46 49 55 62 70 82 80 71 61 43 22 9 7 10 10 12 14 17 19 22 30 43 65 83 91 96 95 96 98 102 87 70 66 57 52 53 56 57 74 96 100 99 100 100 99 99 99 98 98 97 99 99 96 93 90 88 66 30
42 40 37 33 34 36 35 37 41 44 45 45 39 34 35 33 30 35 49 49 44 49 49 54 54 52 51 44 43 39 36 36 35 40 39 36 36 40 44 44 45 51 60 66 72 66 53 37 19 9 8 11 12 14 16 18 20 21 26 36 55 82 95 97 98 99 101 99 100 96 92 89 80 65 57 62 57 72 100 99 100 100 99 101 99 100 99 98 99 98 99 95 92 91 84 58 27
38 37 37 32 32 34 33 37 38 42 44 40 37 31 28 28 31 40 49 51 49 50 49 51 45 43 48 44 43 36 31 32 30 36 39 38 37 40 44 43 43 44 52 59 56 42 27 14 8 9 11 13 15 18 19 20 23 21 26 36 50 72 86 93 96 93 93 95 96 99 102 99 98 85 62 59 55 68 94 96 100 101 99 101 99 101 100 100 100 98 100 96 94 92 86 65 27
33 32 33 31 31 30 34 40 41 42 39 34 36 30 23 25 35 45 47 51 54 50 46 48 39 33 35 34 39 35 28 27 26 32 35 37 37 40 44 41 38 37 42 44 32 18 10 8 10 13 14 16 18 20 21 22 23 23 23 29 34 40 50 58 62 60 59 63 68 81 95 95 96 86 57 52 53 58 80 94 99 101 100 101 100 100 99 100 100 100 101 98 99 96 92 77 37
29 30 28 30 30 28 36 42 41 40 33 30 32 27 23 29 40 45 44 45 47 45 43 44 35 26 24 21 28 32 28 24 22 27 29 34 37 39 42 37 33 31 30 26 14 8 9 11 13 15 17 18 20 21 22 22 22 24 23 24 25 24 26 28 30 30 29 31 34 42 57 69 72 60 39 36 41 48 75 97 99 98 99 99 99 100 98 97 98 99 99 100 99 96 97 82 46
28 29 26 29 30 28 35 37 35 34 31 28 27 26 29 39 44 41 39 37 37 38 37 39 33 24 23 19 19 23 23 24 23 23 26 31 36 39 40 34 28 23 18 12 7 9 12 13 15 16 18 19 20 21 21 22 22 22 23 23 23 23 24 23 24 24 24 25 25 26 27 34 39 33 27 28 30 35 57 84 98 97 97 98 97 97 90 88 94 95 97 99 98 99 96 69 42
28 26 25 28 31 31 34 34 32 29 26 26 24 28 39 49 47 39 36 35 37 35 35 38 32 24 24 23 21 19 18 21 23 22 26 30 35 38 37 31 21 15 10 7 8 11 13 14 17 17 19 20 19 21 20 21 21 21 22 22 22 22 23 23 24 24 25 25 24 26 25 25 26 26 27 28 28 29 36 58 85 94 93 89 80 78 70 69 78 78 79 81 88 96 81 51 38
26 25 25 26 30 34 36 33 32 29 23 23 22 25 37 51 50 42 36 33 36 35 35 38 30 25 24 24 23 20 17 18 23 23 23 23 30 37 34 26 16 10 6 6 11 13 14 15 17 18 18 19 19 20 20 20 20 21 21 21 22 22 23 23 24 24 24 25 25 25 26 26 26 26 26 26 27 28 28 36 58 76 78 66 51 51 52 54 57 57 57 56 64 70 60 44 34
24 24 24 26 29 31 31 29 29 27 22 21 21 24 34 48 49 42 41 36 37 38 38 36 29 27 24 24 23 19 17 18 24 22 18 15 23 36 31 19 11 7 6 8 13 14 15 15 16 18 18 18 19 19 19 19 19 20 21 21 22 23 24 24 25 25 25 25 26 26 26 26 26 27 27 27 27 26 28 27 34 49 55 48 37 36 40 44 47 49 52 52 54 54 52 42 28
25 24 24 25 27 26 27 26 25 22 21 18 19 33 39 46 45 36 40 38 37 38 39 35 27 26 23 23 22 19 19 20 25 20 18 16 19 33 26 13 8 6 8 11 14 15 15 16 16 17 17 18 17 18 18 19 19 20 21 21 22 23 24 25 26 26 27 27 26 27 27 27 27 27 27 27 28 27 28 27 27 31 34 35 32 31 32 35 38 41 43 44 44 44 42 35 29
25 25 23 24 25 24 25 25 24 21 19 14 22 43 45 42 40 35 37 36 36 34 35 36 26 22 20 20 19 18 19 21 25 20 22 20 16 27 21 9 7 7 11 13 14 15 15 16 16 16 17 17 17 17 18 18 19 20 21 22 23 24 25 26 27 27 27 28 28 28 28 28 28 27 28 27 28 27 27 28 28 28 28 29 29 30 31 32 33 34 36 36 36 37 35 34 34
23 24 21 23 26 24 24 22 21 20 15 15 29 50 51 46 44 43 39 31 34 33 30 34 30 24 19 18 18 19 19 20 25 24 25 20 13 20 16 8 7 8 12 14 14 14 15 15 16 16 16 16 16 16 17 18 19 20 21 22 23 24 26 26 26 27 27 28 28 29 29 29 29 29 29 28 28 27 27 27 28 28 29 29 30 30 30 30 32 33 34 35 35 36 36 36 36
19 22 20 20 23 23 24 21 21 22 14 16 34 51 53 50 48 47 42 31 32 35 30 31 29 22 16 15 16 18 18 19 25 26 26 18 12 16 12 8 7 8 12 14 15 14 15 15 15 15 15 15 15 16 17 18 19 21 22 22 24 25 26 26 27 27 28 29 29 30 30 30 31 31 30 30 29 28 28 27 27 28 28 29 29 30 30 30 31 31 32 32 33 34 35 36 36
17 20 20 17 20 21 21 22 24 22 15 19 37 53 50 47 49 44 42 38 35 36 32 31 28 20 16 15 13 16 17 19 24 26 26 18 11 13 11 8 7 8 12 13 14 14 14 14 14 14 14 15 15 17 18 19 21 22 23 24 25 25 26 27 27 28 28 29 29 29 30 30 31 31 32 32 31 31 30 29 28 27 27 27 28 28 29 30 30 30 30 30 30 31 32 33 34
16 18 18 15 18 19 18 19 20 17 14 21 37 51 43 38 47 42 38 39 36 36 34 31 29 23 19 16 13 15 16 18 22 25 26 18 11 12 10 8 7 8 11 13 14 14 14 13 14 14 14 15 16 17 19 21 22 23 24 25 25 26 26 27 27 28 29 29 30 30 30 31 31 32 32 32 33 32 32 31 30 29 29 28 27 27 27 28 28 28 28 28 28 29 29 30 30
16 16 15 14 15 16 15 15 16 16 13 18 31 44 39 31 39 39 33 33 34 36 34 32 30 27 24 19 16 15 16 17 20 23 23 18 12 10 10 8 7 8 10 12 13 13 13 13 13 14 14 15 16 18 20 21 23 24 25 25 26 26 27 27 28 28 29 30 30 30 30 31 31 31 32 32 33 33 33 33 33 32 32 31 30 29 28 27 27 27 27 26 27 27 27 28 28
17 17 14 13 13 15 17 15 16 17 15 18 26 36 39 33 33 31 25 25 29 30 30 32 31 29 28 25 22 18 18 18 19 21 21 19 14 11 10 8 7 8 10 11 12 13 13 13 13 14 15 16 17 18 20 22 23 24 25 26 26 27 27 27 28 29 29 30 30 30 31 31 31 31 31 32 32 32 33 33 34 35 35 35 35 34 34 33 32 31 30 29 28 27 27 27 27
17 17 13 12 15 16 19 20 18 19 18 17 20 30 38 37 32 26 22 22 24 23 23 26 26 26 26 26 26 24 21 20 19 20 21 20 17 14 11 9 8 8 9 11 11 12 12 13 14 14 16 16 18 19 20 21 23 24 24 25 26 27 27 28 28 29 29 30 30 30 31 31 31 31 31 31 32 32 33 34 35 37 37 38 38 38 38 38 37 37 36 35 34 33 31 30 29
17 16 12 14 18 15 16 19 18 18 18 17 20 26 30 32 32 26 22 20 18 18 18 19 20 20 20 20 24 27 26 24 21 21 22 23 20 17 14 11 9 8 9 10 11 12 12 13 14 15 16 17 18 19 20 21 22 23 24 24 25 26 27 28 28 29 30 30 30 30 31 31 31 31 32 32 33 34 35 36 38 39 39 40 41 41 42 42 41 40 39 38 38 38 37 36 35
16 17 15 17 19 13 13 16 15 16 17 20 23 21 20 24 28 28 24 19 17 18 16 16 17 17 17 16 19 24 27 26 23 22 23 25 24 21 18 14 10 9 9 10 11 11 12 13 14 16 17 18 19 19 20 21 22 23 24 24 25 26 26 27 28 29 30 30 30 31 31 31 31 32 32 33 34 35 37 38 40 41 42 43 44 44 44 43 41 40 39 39 39 39 39 39 38
13 15 17 18 18 14 13 15 14 15 16 18 20 18 19 20 21 25 26 22 22 23 18 17 18 17 17 16 16 19 24 27 25 24 25 26 26 25 22 19 14 11 10 10 11 11 13 14 15 17 17 18 19 20 21 21 23 23 24 24 25 26 26 27 28 29 29 30 30 30 31 31 32 33 34 35 36 37 39 41 42 43 44 45 45 45 43 42 40 39 39 38 38 38 38 38 38
14 15 16 15 17 15 15 16 15 15 16 16 17 18 19 18 17 20 22 20 20 21 20 20 19 17 17 17 17 19 23 26 26 25 26 27 27 27 26 24 19 15 12 12 12 13 13 15 16 17 18 19 20 21 22 23 23 24 25 25 26 26 27 28 28 29 29 30 31 31 33 34 35 36 36 38 38 40 42 43 44 44 45 45 44 42 41 39 38 37 36 36 35 35 35 35 35
17 16 16 15 16 16 15 15 16 16 16 16 17 17 16 17 17 16 19 20 19 18 17 18 17 16 18 19 19 21 24 25 26 26 27 28 28 29 29 28 24 20 17 15 14 15 15 17 18 19 20 21 22 23 24 25 26 26 27 27 28 28 28 30 30 32 33 34 35 35 36 37 38 38 39 40 41 42 42 41 41 41 41 41 39 38 36 34 33 32 31 30 29 29 29 29 30
20 18 16 15 15 15 16 15 16 17 17 17 16 15 15 17 17 15 21 24 21 19 18 17 17 18 20 20 20 22 24 25 27 28 28 30 31 32 32 31 28 25 21 19 17 18 20 22 23 24 25 25 26 27 27 28 29 29 30 30 31 32 32 32 33 33 33 33 32 31 30 30 31 32 33 34 34 34 34 33 33 33 34 33 32 31 29 28 27 26 25 25 24 23 24 24 24
20 19 17 15 14 18 19 17 18 18 18 18 15 13 15 18 17 18 25 26 22 20 19 20 20 22 23 22 22 25 25 26 28 29 31 32 33 34 34 32 30 28 27 24 24 26 28 29 29 30 30 31 31 31 31 31 32 32 32 33 33 32 32 31 30 29 27 27 25 24 24 24 24 25 26 27 27 27 27 26 27 27 28 27 27 27 26 25 25 24 23 22 22 21 21 20 20
18 19 18 16 18 22 23 20 20 19 16 18 16 15 18 19 20 25 29 27 23 22 22 23 23 24 25 24 26 27 28 29 31 32 34 35 36 35 33 33 32 31 31 30 32 33 33 33 32 33 33 34 34 33 33 33 33 33 33 33 32 32 31 29 28 26 25 24 24 24 25 25 26 27 27 28 27 27 27 27 27 27 27 27 26 26 25 25 25 24 24 22 22 21 20 20 19
19 20 20 19 20 22 24 21 20 19 16 18 19 18 21 21 24 32 32 27 26 25 24 25 26 26 27 27 28 30 31 32 33 34 35 36 36 34 35 37 36 35 36 37 37 36 35 35 35 35 35 35 34 35 35 36 36 36 36 35 33 31 28 27 26 25 26 26 27 28 28 29 29 29 29 29 30 30 31 30 30 30 30 29 28 28 27 27 27 27 26 25 24 23 22 22 21
22 25 23 19 19 21 25 23 20 18 17 19 21 18 21 24 28 35 32 27 26 25 27 29 27 28 29 30 31 32 34 34 35 36 37 38 38 38 40 42 41 40 42 42 40 38 38 38 37 37 38 38 39 40 41 41 41 40 38 35 32 30 29 29 30 31 32 32 33 33 34 34 33 34 32 31 32 32 33 33 34 36 34 33 34 34 33 33 33 32 31 30 28 27 26 25 23
24 29 29 22 18 19 25 27 21 16 17 20 22 19 19 23 28 36 34 27 26 24 28 32 31 32 34 35 37 39 42 42 42 42 41 42 43 44 44 46 46 45 46 44 42 42 41 41 41 42 43 45 45 46 46 45 45 44 41 38 36 35 35 35 36 37 37 37 37 37 36 36 36 36 35 34 35 34 35 35 37 39 38 38 40 40 40 40 40 40 39 38 36 34 32 30 28
24 24 24 22 19 19 24 27 24 19 18 19 22 20 18 23 30 38 36 28 27 27 31 36 37 39 41 45 48 52 56 53 50 49 48 48 49 50 50 51 50 48 47 46 46 47 46 47 47 48 49 49 49 49 49 49 49 48 46 43 40 39 39 40 41 41 41 41 40 39 37 36 35 34 35 35 36 37 37 37 38 39 38 40 43 44 45 48 48 48 48 48 46 43 40 37 34
24 21 18 20 20 21 22 24 28 26 20 19 21 20 19 25 34 40 38 31 29 30 35 40 42 45 47 52 57 63 66 62 59 57 55 55 54 55 55 54 54 53 52 52 52 51 51 52 52 52 52 52 52 52 52 52 52 51 49 45 43 43 44 46 48 47 46 45 43 41 38 35 33 32 32 33 34 37 39 40 40 40 39 41 45 48 52 55 56 55 55 55 54 52 49 46 42
20 21 19 23 23 24 23 24 30 28 23 22 21 21 22 29 36 42 41 34 32 34 39 43 46 50 55 60 66 71 74 73 70 65 61 60 59 58 58 58 57 56 56 56 55 55 55 55 54 54 54 54 54 54 54 54 53 52 49 48 49 51 52 53 53 51 50 48 44 41 37 34 32 30 29 28 28 31 36 42 46 46 46 49 52 55 60 61 61 61 60 59 58 58 56 53 50
22 24 23 25 26 26 24 26 32 32 28 27 23 23 27 33 38 43 44 38 37 41 44 47 51 56 63 68 72 75 79 79 75 69 65 63 62 61 60 60 59 58 59 58 58 57 57 56 56 54 54 54 55 55 55 54 53 53 53 55 57 56 56 55 54 52 49 45 42 38 36 34 32 30 28 25 22 21 25 33 41 48 52 56 58 60 63 63 63 63 63 63 62 62 62 60 56
29 30 27 25 25 25 24 27 37 40 33 30 30 31 34 39 40 44 46 43 42 45 48 52 56 62 67 71 75 78 80 79 72 67 65 64 62 62 61 60 60 59 59 59 58 57 56 56 55 54 55 56 57 56 56 56 57 59 61 61 60 58 56 55 52 49 45 42 39 36 34 33 31 29 27 23 18 15 15 18 25 34 42 48 52 55 58 60 61 63 64 66 66 65 66 66 65
31 31 28 26 25 24 24 27 38 45 36 31 35 36 40 43 43 45 47 45 45 47 52 57 61 66 70 74 77 79 80 76 68 64 64 63 62 61 61 60 60 59 59 58 58 57 58 58 57 58 60 61 62 63 64 65 65 65 63 61 58 56 53 50 47 43 39 36 34 33 32 32 30 28 25 19 14 11 11 12 14 18 23 29 36 43 50 55 60 65 67 69 71 71 70 69 69
32 28 25 26 26 25 29 32 37 40 34 33 35 36 44 47 45 47 50 49 50 52 55 60 64 68 71 75 77 78 78 73 66 64 64 62 62 61 61 60 59 59 60 60 60 61 61 60 61 63 66 68 69 70 70 68 65 63 60 57 54 50 47 44 41 37 35 33 32 31 30 29 28 25 21 16 11 8 8 9 12 14 17 22 30 39 47 53 59 64 69 72 75 75 74 74 72
29 25 26 27 27 27 32 38 38 35 30 30 32 35 44 48 46 49 52 55 60 63 64 64 65 67 70 73 75 74 73 71 67 65 64 63 63 62 62 61 61 62 62 62 62 63 63 64 67 71 72 73 72 70 67 64 61 59 56 53 50 46 42 39 36 34 32 31 29 28 27 25 23 20 17 13 8 6 6 7 10 14 18 23 31 40 45 49 54 58 64 70 74 76 77 79 77
27 26 25 26 28 27 30 35 35 35 35 33 32 36 42 44 46 51 55 60 65 69 72 72 72 72 75 76 76 74 73 72 68 66 66 65 64 63 63 64 64 63 62 64 66 68 71 74 75 76 73 70 68 66 63 61 58 56 52 49 46 41 37 34 33 32 30 28 26 24 23 21 18 15 12 10 7 5 5 5 6 8 10 14 23 34 40 46 51 55 60 65 71 74 76 76 75
27 31 28 27 30 30 30 31 31 34 39 38 32 32 37 42 47 51 55 59 62 66 70 72 75 77 78 79 78 76 74 71 69 67 66 65 65 65 65 65 65 66 69 73 77 78 78 77 75 73 70 67 66 64 62 59 56 53 49 44 39 31 27 25 25 24 22 20 18 16 15 14 12 10 8 7 6 5 5 5 5 6 8 10 18 29 36 41 47 53 58 62 68 73 75 73 70
25 34 35 32 32 32 32 32 31 28 30 35 33 28 33 43 49 52 53 56 60 64 67 69 72 75 76 77 77 75 72 70 68 67 67 67 67 67 67 70 73 76 80 82 81 80 77 75 73 71 70 68 66 64 60 57 54 49 42 33 25 18 15 15 14 13 11 10 9 8 7 8 7 6 6 6 6 6 6 7 8 9 13 14 18 27 33 34 35 37 40 42 46 51 56 58 57
24 34 39 36 35 35 34 33 33 28 26 34 35 29 31 40 49 53 53 57 60 62 66 69 71 74 76 77 78 78 75 71 69 69 68 68 68 71 76 80 82 82 81 79 77 76 75 75 74 72 71 68 65 62 58 55 51 41 28 17 12 9 9 9 8 7 6 6 6 6 6 6 6 6 6 6 6 7 8 10 12 13 16 17 20 26 29 26 22 19 19 19 20 21 23 27 29
28 39 42 38 37 37 36 35 33 30 30 32 31 29 30 36 47 52 51 56 61 64 68 69 71 75 78 80 81 79 76 71 69 68 68 71 75 82 84 81 79 78 75 75 74 75 76 76 75 73 70 67 64 60 56 54 45 29 14 8 7 7 7 6 7 6 6 7 6 7 8 7 9 10 7 6 6 7 8 10 12 14 16 17 18 20 20 17 13 11 10 9 9 10 10 11 12
33 43 43 40 40 39 37 35 32 32 32 30 29 29 30 33 44 48 46 52 60 67 72 70 71 76 78 82 81 75 71 70 69 70 73 79 83 83 79 74 74 74 73 74 76 77 78 76 75 72 69 65 61 57 55 49 35 17 8 7 7 7 7 6 7 6 7 7 7 8 8 10 17 17 12 10 9 9 9 10 12 13 14 13 13 13 12 10 9 9 9 9 9 9 9 10 10
38 46 44 40 39 37 35 33 35 35 33 33 32 30 30 33 41 43 41 49 57 64 70 72 73 76 79 83 83 76 72 70 71 75 82 85 82 77 76 75 75 75 76 78 80 80 79 77 74 71 67 63 59 56 52 41 23 10 6 7 7 7 8 7 7 8 8 8 9 9 11 18 25 24 19 18 18 16 14 12 13 13 12 12 11 11 10 9 10 9 9 9 9 9 9 11 11
43 42 36 34 31 31 33 31 33 33 32 35 33 31 33 35 41 46 49 59 64 63 65 70 72 74 80 84 83 78 73 73 77 84 86 85 81 79 79 79 78 79 81 82 82 81 79 77 73 69 65 62 58 53 44 29 13 7 7 8 8 9 9 9 9 9 9 9 10 10 14 20 25 25 23 22 22 20 16 14 14 13 13 14 14 14 14 13 12 11 10 10 10 11 11 11 12
40 30 24 27 25 26 27 25 29 30 30 35 33 31 32 36 45 53 59 66 67 63 63 65 67 72 81 84 81 76 74 77 85 90 88 85 84 84 83 83 83 84 85 85 84 82 79 75 70 67 62 57 51 41 28 16 9 7 8 8 9 10 10 11 11 11 11 11 11 11 14 19 21 22 20 18 18 15 13 14 14 15 16 16 17 17 16 15 15 14 13 13 12 11 12 13 12
29 24 24 27 27 30 30 28 30 30 29 31 31 31 31 40 57 64 63 67 68 66 65 64 66 71 79 83 80 78 81 85 88 89 87 86 88 87 87 88 89 89 88 86 84 81 77 72 67 61 53 44 34 23 13 9 8 8 9 9 10 11 11 12 12 13 14 16 16 16 21 25 23 20 17 16 16 15 14 15 16 17 18 18 18 19 19 18 18 17 16 15 15 14 13 14 14
26 28 29 32 34 41 42 36 36 36 33 28 29 34 34 42 62 69 65 69 73 73 72 71 73 76 81 85 83 82 85 86 87 88 88 88 90 91 92 93 93 92 89 86 83 79 74 67 60 51 40 29 19 12 9 10 10 10 11 11 12 12 12 13 13 14 15 18 19 21 29 36 31 21 17 17 17 17 17 18 18 18 18 19 19 19 20 20 20 20 20 19 18 18 16 15 15
30 28 28 33 37 43 45 41 42 45 40 32 31 38 40 45 58 64 62 65 69 72 74 76 79 81 84 86 86 86 87 84 83 85 87 89 93 95 97 97 96 92 89 86 81 75 69 60 50 38 25 16 11 10 10 10 10 11 12 13 13 14 14 14 16 16 17 18 18 22 32 40 34 22 20 21 20 19 18 18 19 19 20 20 21 21 21 22 23 22 22 22 21 21 20 19 18
29 27 29 36 37 37 41 41 44 50 47 40 35 37 46 54 58 57 55 58 60 62 66 68 72 76 78 80 82 85 89 87 81 80 86 94 98 99 99 99 95 91 88 83 77 70 62 51 39 26 16 12 11 12 12 14 20 21 18 17 18 20 19 19 20 20 21 22 21 27 42 50 41 28 23 23 21 21 20 20 20 20 21 21 21 22 23 23 24 24 23 23 23 23 23 22 21
26 30 34 36 35 35 39 40 42 46 44 37 35 37 46 55 58 56 54 54 55 56 59 61 66 71 72 74 79 83 88 88 83 83 91 99 100 100 100 98 94 90 85 78 71 64 54 42 30 19 14 14 14 15 15 22 33 31 23 22 26 27 24 23 24 23 25 27 25 32 53 66 58 39 28 26 25 25 24 23 23 22 22 22 22 22 24 24 24 25 25 24 24 25 25 25 25
29 33 35 34 35 33 35 41 42 43 39 33 37 42 41 46 55 57 55 55 55 55 56 58 63 68 70 74 81 86 89 90 88 91 97 101 100 100 100 96 91 87 80 72 65 58 48 35 23 16 14 15 15 16 16 24 32 28 21 24 27 28 27 26 26 26 28 30 27 31 48 63 58 40 30 28 27 26 27 26 26 25 24 24 25 25 25 26 27 26 28 27 27 28 27 27 28
31 34 32 31 36 35 37 44 45 48 47 40 43 47 44 48 55 57 56 55 55 54 55 58 62 67 72 75 79 83 87 86 84 87 94 99 100 99 98 94 89 82 74 66 61 55 43 28 18 15 15 15 15 16 18 23 29 26 23 25 25 27 28 27 28 29 30 30 30 35 46 53 50 41 36 35 35 35 35 35 35 34 34 31 29 30 29 29 33 32 33 33 31 33 33 31 32
32 32 31 33 37 39 42 44 43 46 47 47 50 48 45 52 56 57 61 57 55 58 58 60 64 66 69 71 74 78 78 74 74 80 85 91 96 98 96 91 83 75 68 64 60 51 35 21 16 15 15 15 16 18 19 23 25 24 24 25 26 27 27 27 29 30 30 30 34 41 47 47 43 41 43 46 49 49 47 52 55 52 54 51 41 40 39 35 37 37 37 39 37 37 39 36 36
36 37 43 44 40 41 42 43 47 50 45 48 56 49 44 53 56 56 61 57 55 60 59 60 62 63 66 68 70 72 68 64 71 78 81 86 93 95 91 85 77 70 66 64 58 44 26 16 16 16 16 17 18 20 22 24 24 24 24 25 26 26 26 28 28 28 30 32 36 43 46 46 45 47 54 60 62 61 59 67 74 68 70 71 60 55 55 52 53 50 43 43 43 42 43 43 42
37 40 46 47 45 47 41 41 55 62 52 49 55 50 46 55 56 53 55 54 54 59 58 59 60 60 63 63 63 64 61 62 73 79 82 88 92 90 85 79 72 69 68 62 49 31 19 15 16 16 18 19 20 21 22 24 25 24 25 26 26 27 28 29 29 30 32 34 39 45 44 45 48 49 58 69 71 68 66 69 71 65 65 73 68 63 66 68 67 61 50 47 47 46 47 48 48
Wind_Speed
1 2 3 4 6 6 4 4 4 3 3 7 6 3 2 2 2 2 3 3 1 2 5 2 5 9 5 1 1 2 2 1 2 2 1 4 4 8 12 11 12 15 19 20 15 12 13 10 8 7 6 5 4 3 2 3 3 4 4 4 4 4 5 6 8 9 10 10 10 10 10 10 10 9 9 9 9 10 10 11 11 11 11 11 11 11 11 11 11 11 10 11 11 9 10 11 10
0 2 3 3 5 6 4 4 4 4 5 8 6 4 1 3 1 4 2 2 1 3 7 6 9 10 4 0 1 1 2 2 1 2 3 5 6 10 12 11 13 15 18 18 14 11 11 10 8 7 6 5 4 3 4 4 5 5 6 6 6 7 8 10 11 11 11 11 11 11 10 10 10 10 9 9 9 10 10 11 11 11 11 10 10 11 11 11 11 11 10 10 10 9 10 10 9
1 2 3 2 4 4 3 3 6 6 7 8 6 3 3 2 4 1 1 0 2 6 8 8 10 8 4 1 3 3 2 3 4 4 3 4 6 10 12 12 14 15 17 17 13 11 11 10 8 7 5 5 5 5 5 6 6 6 6 7 7 9 11 12 13 13 13 12 12 12 11 11 11 10 10 10 9 9 10 10 11 11 11 10 10 10 10 10 10 10 10 10 9 10 10 9 9
1 2 3 2 4 5 3 4 6 7 8 7 4 3 4 4 2 2 2 2 6 9 8 9 7 6 8 5 3 4 3 4 6 7 5 6 6 9 12 12 14 15 16 16 14 13 12 10 8 7 6 7 7 7 7 7 7 7 6 6 8 11 12 13 13 13 13 13 13 12 12 12 11 11 11 10 10 10 10 11 11 11 11 11 10 10 10 10 10 10 10 9 9 9 9 9 9
2 2 3 4 4 3 2 3 3 7 7 4 3 2 4 3 1 3 4 5 9 10 7 8 4 5 10 7 3 2 2 3 6 8 7 7 7 10 13 12 14 15 16 16 15 14 12 10 9 8 8 8 9 8 8 8 8 7 7 7 9 11 12 12 13 12 12 12 12 12 12 12 12 12 10 10 10 10 11 11 11 11 11 11 10 10 10 10 10 10 10 9 9 9 9 9 8
2 2 3 5 4 1 2 4 4 8 5 3 4 0 3 1 1 3 5 4 7 8 8 8 4 2 5 6 8 5 3 3 5 9 8 8 9 12 13 13 14 15 16 16 16 14 12 11 10 10 10 10 10 10 9 9 9 9 9 10 11 11 11 11 11 11 11 11 11 11 12 12 12 12 10 9 9 10 11 11 11 11 11 11 11 10 11 10 10 10 10 10 9 9 9 9 8
2 3 3 4 3 2 5 7 6 7 2 1 5 2 2 1 2 4 6 5 6 7 8 10 5 2 2 4 7 10 9 5 6 9 9 9 11 13 14 13 14 16 17 17 16 14 13 12 12 12 12 11 11 11 10 10 10 11 11 11 11 11 10 10 10 9 9 9 9 9 10 11 11 11 9 9 9 10 10 11 11 11 11 11 11 11 10 10 10 10 10 10 9 9 9 9 9
3 3 2 3 3 2 6 7 6 5 0 0 4 3 0 3 5 6 7 6 5 6 9 12 9 3 3 4 3 7 12 9 7 7 9 11 12 15 15 14 15 16 17 17 16 15 15 14 14 13 13 12 12 12 11 11 11 11 11 11 10 10 9 9 8 8 8 8 8 8 8 9 9 8 8 8 8 9 9 11 11 11 11 11 11 11 10 10 10 9 9 9 9 9 9 8 9
4 3 3 4 4 3 6 7 6 3 2 2 4 4 3 5 8 7 8 6 4 6 9 11 12 5 1 5 4 4 9 10 9 7 9 11 13 15 14 15 15 16 17 17 16 16 16 15 15 14 14 13 13 12 12 12 11 11 10 10 9 9 8 7 7 7 7 7 7 7 7 7 7 7 7 7 7 8 8 9 10 11 11 10 10 10 9 9 9 9 9 9 9 9 8 9 9
4 3 2 3 4 5 7 7 5 3 3 3 5 6 6 8 10 8 8 6 6 7 9 13 13 7 1 3 4 4 7 8 9 9 11 13 14 15 14 15 15 15 16 17 17 16 16 16 16 15 14 13 13 12 11 11 10 10 9 9 8 8 7 7 7 6 6 6 6 6 6 6 6 6 6 6 7 7 7 8 9 10 9 9 9 9 9 9 9 9 9 8 8 8 9 9 9
5 2 1 3 5 7 7 6 6 3 2 2 5 7 8 9 9 8 8 5 6 7 8 13 9 8 5 2 4 5 6 7 9 11 12 13 14 15 14 16 16 15 15 16 17 16 16 16 17 16 15 13 12 12 11 10 9 9 8 8 7 7 7 6 6 6 6 5 6 6 6 6 6 6 6 6 6 6 7 7 7 8 9 9 9 9 9 9 9 9 9 9 9 9 10 10 11
5 2 3 5 6 6 5 5 6 5 4 4 3 3 6 10 8 6 9 5 6 7 8 12 5 5 6 2 3 4 6 8 11 13 13 12 14 16 15 16 17 17 16 16 17 16 16 15 16 16 15 13 12 11 10 9 8 7 7 6 6 6 6 6 6 6 6 5 5 6 6 6 6 6 6 6 6 6 6 7 7 7 8 9 9 9 9 9 10 9 9 10 10 10 11 12 12
5 2 4 5 3 4 3 5 5 5 6 4 1 2 5 9 6 3 6 5 7 6 6 12 6 3 3 1 3 4 6 10 12 14 12 11 15 17 17 17 18 18 17 17 17 16 15 14 13 13 13 12 11 9 8 7 6 6 6 5 5 5 5 5 5 5 5 5 6 6 6 6 7 7 7 7 7 7 7 7 7 8 8 9 10 10 10 10 11 11 11 11 11 11 12 12 13
6 4 4 3 1 2 3 5 4 5 5 2 4 2 5 5 4 2 4 4 6 6 3 11 10 3 3 2 4 5 7 11 14 15 13 13 16 18 18 18 18 18 18 17 16 15 15 13 12 11 11 10 9 8 7 6 5 5 5 4 4 4 4 4 4 5 5 5 6 6 7 7 8 8 8 8 8 8 8 8 8 9 9 10 10 10 11 12 13 13 13 13 12 12 13 13 13
6 5 3 3 2 2 3 4 2 4 4 3 2 3 5 4 3 3 5 4 4 7 3 8 11 3 2 1 3 6 8 11 14 15 14 15 17 18 18 19 18 18 19 18 16 15 14 13 11 10 9 8 8 7 5 5 5 4 4 4 4 3 3 3 4 4 4 5 5 6 6 8 9 9 10 10 10 10 10 9 9 10 11 11 11 11 12 13 14 14 15 15 15 14 14 14 14
7 5 2 3 3 2 3 2 1 4 2 3 1 3 4 5 4 3 6 5 2 7 6 6 11 5 1 2 3 6 8 11 14 15 15 15 17 19 19 19 19 19 19 19 17 15 14 12 11 9 8 7 6 6 5 4 4 4 4 4 3 2 2 2 2 3 3 4 5 6 7 8 9 10 11 12 12 12 12 12 11 11 12 13 13 13 13 14 15 16 16 17 17 17 17 16 16
7 5 3 4 4 3 3 4 2 2 2 3 3 4 3 2 3 4 5 5 3 5 7 7 10 8 4 3 5 6 8 10 13 15 15 16 18 19 20 20 20 20 20 19 18 16 13 12 11 9 8 6 5 5 4 4 3 3 3 3 2 1 0 1 1 3 4 5 6 7 8 9 10 11 12 13 14 14 14 14 14 14 14 14 15 15 15 16 17 18 18 19 20 19 19 19 19
6 3 4 5 4 3 2 4 2 2 3 2 3 4 4 1 1 3 3 4 4 6 8 9 9 10 9 7 6 5 7 9 12 14 15 16 17 18 20 21 21 21 20 19 18 16 14 13 11 9 8 6 4 4 3 3 3 2 2 2 2 1 1 2 3 4 5 6 7 8 9 10 11 13 14 15 16 16 17 17 17 17 16 16 17 16 16 16 17 18 19 20 21 21 21 21 21
3 1 4 5 2 0 0 2 1 2 3 3 2 3 4 2 1 2 3 2 3 6 7 9 9 11 13 12 11 8 7 9 11 13 14 15 15 16 18 20 21 21 20 19 18 17 15 13 12 9 7 5 4 3 3 3 2 2 2 2 2 3 3 4 5 6 6 7 8 9 11 12 13 15 16 17 18 19 19 20 20 19 19 19 19 19 18 18 18 19 19 20 21 21 22 22 23
2 2 5 4 0 1 1 2 2 3 3 1 0 2 4 4 3 3 3 2 3 6 6 6 8 9 12 13 14 14 11 10 12 13 14 15 15 15 18 19 20 21 20 20 18 17 15 13 11 9 6 5 4 3 3 3 3 4 4 4 5 5 6 6 7 8 9 10 11 12 13 15 16 18 19 20 21 22 22 22 22 22 22 22 22 21 21 21 20 20 20 20 20 21 21 22 23
2 3 4 1 1 1 1 3 5 4 4 2 1 2 3 4 5 4 2 5 4 3 5 5 5 5 7 10 13 16 15 13 13 14 15 16 16 17 18 19 20 20 19 19 17 16 14 12 10 8 6 5 4 4 4 5 5 6 7 7 7 7 8 8 9 10 10 12 13 14 16 18 19 21 22 23 23 23 23 24 24 23 23 23 23 22 22 22 22 22 21 21 21 21 21 22 23
3 3 2 2 2 2 1 2 5 4 4 3 2 3 2 2 5 6 5 6 3 4 3 2 3 4 5 7 9 13 15 15 15 15 16 17 17 17 17 17 17 17 17 17 17 15 13 11 9 8 6 6 6 6 7 7 7 8 8 8 9 9 9 9 10 11 12 14 15 17 18 20 21 22 23 23 23 23 23 23 23 23 23 23 23 23 23 23 24 24 24 23 22 22 22 22 23
4 2 1 2 4 3 1 2 3 4 4 4 3 3 2 2 3 5 7 6 7 6 5 3 4 7 8 8 7 9 12 14 15 16 17 18 18 17 15 15 16 17 17 16 15 13 12 10 9 8 7 6 7 7 8 8 8 9 9 9 9 9 10 10 11 12 13 15 17 18 19 20 21 21 21 21 22 22 22 22 22 22 22 22 23 24 24 24 25 25 26 25 25 25 24 24 24
4 3 2 3 5 5 4 4 4 5 6 5 4 3 3 3 2 2 1 7 11 12 12 11 13 13 11 9 6 7 10 14 16 17 18 18 17 16 14 14 14 15 16 14 13 11 10 9 7 7 6 6 7 7 8 8 8 8 8 8 8 9 9 10 11 13 14 16 17 18 18 19 19 19 20 21 21 22 22 22 22 22 22 23 24 24 25 25 26 26 27 27 27 27 27 26 26
6 4 1 2 3 5 6 6 7 6 7 6 4 3 3 3 3 1 6 11 11 9 8 10 11 11 10 8 7 9 11 13 15 16 17 17 16 15 13 13 12 13 13 11 10 9 7 7 6 6 6 6 7 6 6 6 6 5 5 5 6 7 8 10 11 12 13 15 16 16 17 18 19 20 20 21 21 21 22 22 22 23 22 23 24 24 25 25 25 26 27 27 28 28 28 28 28
5 3 1 2 2 3 6 6 6 6 6 5 5 4 3 4 4 2 9 15 11 10 7 4 3 3 5 8 8 9 10 11 13 14 15 15 13 12 11 10 10 9 9 8 7 6 5 6 6 5 5 4 4 4 3 2 2 2 3 4 5 6 7 9 10 11 12 14 15 16 17 18 19 19 20 20 20 20 20 21 21 22 22 22 23 23 23 24 25 25 26 27 28 29 29 29 29
2 2 3 4 4 3 4 4 4 5 5 5 5 3 2 2 2 1 12 16 10 9 8 6 5 5 6 8 8 8 9 10 10 10 10 10 8 7 6 6 7 7 7 8 8 8 9 9 9 8 7 6 5 4 3 2 1 1 2 4 5 6 7 8 10 11 12 13 14 15 16 17 17 18 19 19 19 20 20 21 21 22 22 22 23 23 23 24 25 25 26 27 28 29 30 30 30
1 1 4 5 3 2 3 3 2 3 4 5 5 2 4 3 2 4 14 16 11 11 10 9 9 10 9 8 8 8 7 7 7 6 5 7 7 7 9 10 11 14 14 14 15 15 14 13 12 11 10 9 7 6 5 4 4 4 5 5 6 7 8 9 10 11 12 14 15 16 17 18 18 19 20 20 21 21 22 22 22 23 23 24 24 25 25 25 26 26 27 27 28 29 30 30 31
1 1 3 3 3 2 3 3 1 2 2 3 4 2 4 5 5 7 16 17 11 11 13 12 12 13 13 12 12 13 12 11 11 11 11 12 13 14 18 20 19 19 20 19 18 16 15 14 12 11 10 9 8 7 7 7 7 7 8 8 9 9 10 11 12 14 15 17 18 18 19 20 20 21 21 22 23 23 23 24 24 25 25 26 27 27 27 27 27 27 28 29 29 29 30 30 31
1 1 2 4 4 2 3 2 1 2 2 2 3 3 2 7 6 12 19 18 10 9 13 13 14 15 16 16 17 19 18 17 18 18 19 20 22 23 25 25 23 22 23 21 18 17 16 15 13 13 12 10 10 10 10 10 9 9 10 10 11 12 13 15 17 18 19 20 21 21 22 23 23 23 23 23 24 24 25 25 26 26 27 28 28 29 29 29 29 29 29 29 30 30 30 30 31
0 1 1 2 3 1 4 2 2 1 1 1 3 4 2 7 7 16 21 18 11 10 13 14 16 18 19 20 22 24 23 23 24 24 25 27 28 28 27 27 25 24 23 21 19 18 17 15 14 14 13 11 11 11 10 10 10 11 12 12 13 15 16 18 19 20 21 22 23 24 24 25 26 26 26 26 25 26 26 26 27 28 29 29 29 30 30 30 31 31 30 30 31 30 30 31 31
1 2 2 1 2 1 4 4 4 2 2 2 3 4 2 7 11 18 20 18 11 11 13 15 17 19 20 22 24 26 26 27 28 28 29 30 30 29 28 27 25 23 22 21 19 18 16 15 14 13 11 10 10 10 10 10 10 11 12 13 14 16 17 18 20 21 22 23 24 25 27 27 28 28 29 28 28 28 28 28 28 29 30 30 31 31 31 31 32 32 31 30 31 31 32 32 32
2 2 3 1 2 4 1 3 4 3 1 2 1 4 1 6 12 18 19 18 12 13 15 16 17 19 20 21 23 25 27 29 31 30 30 30 30 28 27 26 24 22 21 20 18 16 15 14 12 11 10 9 9 9 8 8 9 10 11 12 14 16 17 19 21 22 23 25 26 28 29 29 30 30 30 30 30 30 30 30 30 31 32 32 32 32 32 32 32 33 32 31 32 33 33 33 34
1 1 3 2 2 4 3 1 3 4 1 1 0 2 3 9 13 18 19 16 14 15 15 16 17 19 20 21 23 24 27 29 30 30 30 29 28 27 26 24 22 21 19 18 16 15 14 12 11 10 9 9 8 8 7 7 8 9 10 12 14 16 19 21 23 24 26 28 30 31 32 32 32 32 31 31 30 31 31 31 32 32 33 33 33 33 32 32 32 33 33 33 33 33 34 34 35
3 4 4 3 2 3 5 2 4 6 2 3 3 2 6 12 14 18 18 15 16 16 16 17 19 20 20 22 23 24 27 29 29 29 29 28 27 25 24 22 20 19 18 16 14 13 12 11 10 9 8 8 8 7 7 8 9 11 13 15 18 21 23 25 27 28 29 32 33 34 34 34 34 33 32 31 31 31 31 31 32 33 33 33 32 32 32 32 32 33 33 34 34 34 34 35 36
4 4 4 6 5 4 5 2 6 6 4 3 4 3 8 12 13 16 16 15 17 17 17 17 18 19 20 21 22 24 27 28 28 28 27 26 25 23 22 20 19 17 16 14 12 11 11 10 9 8 9 10 11 11 12 14 16 18 20 23 26 28 29 30 31 33 34 35 36 35 35 34 33 32 32 31 31 31 31 31 31 31 32 32 32 32 32 32 32 32 32 33 33 33 33 34 35
3 3 4 5 6 6 3 3 5 4 3 2 6 8 10 11 12 14 14 15 17 16 17 17 18 19 20 21 22 23 25 26 27 27 25 24 22 21 20 19 16 15 14 12 11 11 12 12 11 12 14 16 16 19 20 22 24 26 29 31 32 34 35 35 36 37 38 37 38 37 35 33 32 31 31 31 30 30 30 30 30 30 30 30 30 30 30 30 30 30 31 31 31 31 32 32 33
2 3 4 4 4 4 3 4 4 3 3 2 5 7 11 11 11 13 14 15 15 15 16 17 18 18 19 20 21 21 21 23 25 24 23 21 19 18 16 15 13 12 13 12 12 14 14 14 15 17 19 21 22 24 26 28 30 31 33 34 36 37 38 39 39 39 39 37 37 36 34 33 32 31 31 31 30 30 29 29 28 28 28 28 27 27 27 28 28 28 29 29 29 29 30 30 31
2 2 4 3 3 4 2 3 2 2 3 2 2 5 9 10 11 13 14 15 15 15 16 16 16 17 17 18 18 19 19 21 23 22 20 18 16 15 14 13 13 13 13 14 14 15 16 17 20 21 23 25 26 28 30 31 33 34 35 36 38 39 40 41 40 39 37 35 34 34 32 32 31 31 31 31 30 30 30 29 28 28 27 27 26 26 27 27 27 28 28 28 28 29 28 27 28
1 2 3 3 5 4 1 2 2 2 1 2 2 3 6 8 9 12 14 15 16 17 18 17 17 17 17 16 16 17 18 19 20 19 17 15 14 13 13 14 14 14 14 15 17 18 20 22 24 25 27 28 29 31 32 34 36 37 39 40 42 42 42 41 40 38 35 33 33 33 31 30 30 29 30 30 29 29 30 29 28 28 27 27 26 27 27 28 28 28 28 27 27 28 28 27 27
2 3 3 4 5 4 3 4 7 3 3 1 3 2 5 5 7 9 10 13 14 15 16 17 17 16 17 17 17 18 18 18 18 17 15 13 13 13 14 14 15 16 18 20 22 23 25 26 27 28 29 30 31 33 34 36 39 42 43 44 44 42 41 39 38 37 35 34 33 33 32 30 29 28 28 28 27 27 27 26 26 26 26 25 25 25 26 27 27 27 27 27 27 27 28 29 30
2 3 3 3 3 5 6 7 8 4 2 3 4 3 2 4 7 7 6 9 11 12 14 15 14 13 14 15 16 16 17 16 15 14 13 13 13 13 14 16 17 20 22 24 25 25 26 26 27 28 29 30 32 34 37 39 42 45 45 45 42 39 38 37 36 36 35 34 33 32 31 30 29 27 27 27 25 24 25 24 24 24 24 24 24 24 25 26 26 27 27 27 27 27 27 29 30
3 2 1 1 3 6 7 7 6 4 2 3 3 4 1 4 6 7 6 8 9 10 12 12 11 11 11 12 12 12 14 14 13 12 12 12 13 14 16 19 22 24 24 25 25 25 25 26 26 27 29 31 33 36 39 42 44 45 43 40 37 35 34 34 34 34 33 32 32 31 30 29 28 27 26 26 25 24 24 24 24 23 23 24 24 24 25 26 26 27 27 27 27 27 26 27 28
3 2 1 3 5 6 5 5 3 2 2 1 3 2 3 1 5 6 6 8 8 8 9 9 9 9 10 10 10 11 12 11 11 11 11 12 14 16 20 22 24 24 24 24 24 24 24 25 26 28 30 32 35 38 41 43 44 43 39 35 33 32 31 32 32 32 32 31 31 30 29 29 27 27 27 27 27 26 24 24 24 23 23 24 24 24 25 26 27 27 27 27 26 26 25 26 26
2 2 2 4 4 4 3 3 1 1 2 1 5 4 4 1 5 5 4 5 6 6 6 7 7 7 8 8 9 10 10 9 9 10 11 13 16 19 21 22 23 23 24 24 24 24 24 25 27 29 31 33 36 39 41 43 43 39 35 32 31 30 30 30 31 31 32 32 32 30 30 29 27 27 28 29 29 28 27 26 25 25 25 25 25 25 26 26 27 27 27 27 27 26 25 25 25
2 0 1 0 0 0 1 1 0 1 1 3 6 5 4 2 4 3 2 2 4 3 4 5 5 6 6 6 7 7 7 7 9 10 12 14 17 20 21 22 23 23 23 23 23 23 24 26 28 30 33 35 38 40 42 43 40 35 32 31 30 29 30 30 31 31 32 32 32 31 30 28 26 27 29 29 30 30 30 29 28 28 28 28 28 28 28 28 28 27 27 27 27 27 27 25 25
3 4 3 2 2 1 1 1 1 2 1 4 5 4 4 3 3 4 3 2 3 1 3 5 6 5 4 4 4 4 5 6 8 10 14 16 18 20 21 22 23 23 22 22 22 23 24 26 29 32 34 37 39 41 42 41 36 32 30 29 29 28 29 30 30 31 31 31 31 30 29 28 27 28 29 29 30 32 32 31 31 31 31 30 30 31 31 31 31 30 29 28 28 28 28 27 27
4 4 3 1 1 1 2 1 1 2 3 3 3 4 4 3 3 5 5 5 5 3 3 6 6 5 4 3 3 3 5 7 9 12 15 17 19 20 21 22 22 21 21 21 21 23 25 28 31 34 36 39 41 42 41 37 32 30 29 28 27 28 28 29 29 30 30 30 30 30 29 29 28 29 30 31 31 32 33 32 33 33 33 32 32 32 33 33 33 33 32 31 30 28 28 28 29
4 4 4 4 3 1 1 2 1 3 3 3 3 5 4 1 4 5 6 7 6 3 4 6 6 5 4 2 2 5 8 10 11 14 16 18 20 21 22 22 21 20 20 21 22 25 28 31 34 37 39 40 41 39 36 33 30 29 27 26 27 27 28 28 29 29 29 29 29 29 29 29 30 30 31 32 33 33 33 33 34 34 34 34 33 33 34 34 34 34 34 33 32 31 29 29 29
7 5 6 5 4 4 3 3 2 3 2 1 1 4 1 3 4 5 6 6 6 7 7 7 6 5 3 3 4 8 11 13 14 15 17 20 21 21 22 21 19 18 19 21 24 27 31 34 37 39 40 40 39 36 33 31 29 28 26 26 26 27 27 28 28 28 28 28 28 28 27 27 29 31 33 33 34 34 34 35 35 35 35 35 35 35 34 34 34 34 34 34 34 33 32 31 30
4 2 4 4 3 4 4 3 4 4 4 3 2 1 2 2 3 4 5 6 7 8 8 7 6 5 4 4 6 9 10 13 15 17 19 21 21 21 21 19 17 18 19 22 26 30 34 37 38 39 39 38 35 33 31 30 28 26 26 25 25 25 26 26 26 26 27 27 28 27 26 27 29 32 33 33 34 35 35 35 35 36 36 36 36 36 35 35 34 34 35 34 35 34 33 33 32
2 1 2 4 3 3 3 2 2 4 4 2 1 1 3 2 3 4 5 6 8 7 7 7 6 6 6 6 8 9 10 12 16 18 19 21 21 20 19 16 16 17 20 25 29 33 37 38 38 38 37 34 32 30 29 28 25 24 25 25 25 25 26 26 26 26 26 26 26 26 25 26 28 30 32 34 34 35 35 35 36 36 36 36 36 36 35 35 35 35 35 35 35 35 34 34 34
1 2 3 4 2 3 3 1 1 2 3 0 1 1 2 3 3 3 3 4 5 5 5 5 5 4 6 8 9 10 12 14 17 18 18 19 19 19 17 15 15 18 23 28 32 36 39 38 37 36 34 32 31 30 29 26 23 24 27 27 26 26 27 28 27 27 27 27 27 25 24 24 27 30 33 34 35 35 35 35 36 36 36 36 36 36 36 36 36 35 36 36 36 35 35 35 35
3 4 5 2 2 1 1 2 1 2 3 2 1 1 1 1 1 3 3 2 2 2 2 2 3 5 8 10 11 12 13 15 17 17 16 17 18 18 16 15 17 21 27 32 35 38 39 38 35 35 33 32 32 32 30 27 24 27 29 29 28 28 29 29 29 29 28 28 29 27 25 25 28 32 35 35 35 36 36 36 36 36 37 37 36 36 37 36 36 37 37 37 37 35 36 36 35
5 3 2 2 1 1 1 1 3 3 4 4 1 0 1 1 2 2 3 3 2 2 0 2 5 8 11 13 14 14 15 16 17 15 14 17 18 17 15 16 20 25 31 35 38 39 40 38 35 34 33 32 32 32 30 28 26 28 30 30 30 29 30 30 30 30 29 30 30 28 27 27 30 34 35 35 35 36 36 37 37 37 36 37 37 36 36 36 36 37 38 37 37 36 36 37 36
4 2 2 3 1 2 2 1 2 2 4 4 3 2 0 3 3 4 4 4 1 1 2 4 7 10 13 14 15 15 16 17 17 16 16 18 17 16 16 18 23 28 33 36 39 40 40 37 34 33 32 32 31 31 29 28 28 29 29 29 30 30 30 30 30 30 30 30 30 29 29 30 32 34 34 34 35 35 36 35 34 35 34 35 38 37 36 38 37 37 38 37 37 37 37 38 37
4 4 6 5 2 0 0 0 0 2 4 3 5 6 1 4 2 2 2 3 2 1 3 5 9 11 13 14 14 15 17 18 16 17 18 17 15 15 16 20 25 30 34 37 39 39 37 35 32 32 31 31 30 29 28 28 28 29 29 29 29 30 30 30 30 31 31 31 30 30 31 32 34 34 32 32 32 32 33 31 30 32 31 30 34 35 35 35 34 35 38 38 38 38 38 38 38
6 5 5 5 3 0 1 1 2 1 3 2 5 7 2 4 2 1 2 1 2 2 4 7 10 12 13 13 13 14 17 17 16 17 15 12 12 14 16 21 27 32 35 37 39 38 35 34 32 31 30 30 30 29 28 28 28 29 29 29 30 30 30 31 31 32 32 31 31 31 32 33 34 34 33 29 29 31 32 32 32 34 33 31 33 34 33 32 32 35 39 39 38 39 39 39 39
Wind_Direction
307 181 173 178 176 178 172 168 213 206 232 254 240 245 195 108 18 246 200 165 236 181 190 183 144 165 158 200 246 3 338 318 347 310 29 106 146 155 156 162 167 173 186 193 183 191 207 214 233 242 256 264 264 245 209 179 158 149 147 142 128 103 84 77 73 72 70 70 69 67 68 70 69 67 65 65 61 53 49 45 43 43 42 42 40 39 38 36 33 33 33 32 29 12 8 9 1
199 180 173 171 177 190 182 180 244 221 221 252 238 237 118 93 226 248 233 193 14 138 173 166 160 175 182 35 175 275 228 197 99 98 107 121 141 157 159 155 161 166 179 189 181 187 202 210 223 229 240 240 230 203 179 165 154 150 145 129 111 92 81 77 75 75 73 73 72 71 70 69 68 67 66 64 60 51 48 46 43 43 43 42 39 38 36 35 34 33 31 32 28 12 16 10 357
193 186 182 186 183 201 185 189 244 238 232 250 241 179 129 210 231 253 11 108 100 155 165 164 172 184 199 222 196 233 236 211 203 170 159 157 156 170 167 158 161 161 171 182 180 184 194 201 210 214 217 204 193 180 168 161 155 152 146 127 104 87 81 78 77 77 75 75 74 71 68 68 66 63 64 62 59 52 48 45 44 44 42 42 40 37 36 34 34 33 31 30 27 20 18 5 355
181 199 196 207 199 207 206 215 240 245 241 248 252 140 164 231 216 91 107 163 158 157 157 167 183 202 210 236 220 237 247 223 213 197 192 187 182 179 173 166 163 159 163 171 175 179 187 195 198 197 191 181 173 166 161 156 152 147 140 123 100 85 83 80 78 77 75 74 72 71 67 66 63 60 60 60 59 53 47 45 44 43 41 40 39 36 35 34 33 33 32 29 26 22 16 3 352
169 196 212 225 218 212 217 240 244 241 245 253 266 135 162 214 141 116 137 164 164 160 168 180 196 209 213 236 225 243 231 208 211 199 192 191 189 180 178 171 165 162 162 164 170 175 183 187 184 180 174 169 163 159 154 146 140 133 123 108 96 88 85 81 79 76 75 73 71 69 65 64 62 60 59 58 58 54 47 46 44 42 40 38 37 35 33 33 33 32 31 30 25 22 17 7 353
154 183 208 224 220 171 216 237 232 233 244 269 274 134 133 150 84 126 131 149 168 177 183 190 210 186 213 234 218 220 192 177 192 193 191 190 187 179 178 176 171 168 165 165 168 172 178 177 172 169 165 162 157 151 144 136 129 120 110 101 96 93 90 86 84 80 77 73 70 67 63 62 60 58 57 54 51 52 49 45 43 40 38 37 36 33 32 30 30 29 29 28 24 21 17 8 360
166 193 187 205 192 176 239 242 241 241 227 241 277 313 105 122 123 139 146 163 182 198 197 198 201 184 223 216 215 222 210 190 172 184 190 186 183 180 179 180 177 171 167 166 167 169 172 170 166 163 160 154 147 142 133 127 120 111 104 100 97 94 92 90 88 83 80 73 67 63 60 59 57 54 49 45 41 45 48 45 42 40 38 36 35 32 31 29 28 26 24 24 22 19 17 7 358
195 213 192 225 207 199 249 248 253 255 182 356 282 286 119 150 164 172 179 183 187 193 200 201 192 209 234 190 206 219 211 209 194 183 185 184 182 182 181 183 180 173 167 166 167 166 169 166 160 156 150 144 137 132 125 119 111 106 100 97 95 92 90 86 85 81 76 71 65 59 56 54 52 48 42 39 34 33 39 43 42 39 37 35 33 31 29 26 24 22 20 20 18 17 14 2 354
209 226 203 236 236 224 245 249 251 256 240 242 252 230 203 184 181 190 191 188 190 185 195 195 189 207 207 189 214 212 209 212 203 187 181 182 181 184 182 182 181 175 168 166 165 164 170 162 151 147 142 138 133 127 119 115 107 102 98 94 93 89 87 84 80 76 70 66 61 57 52 48 44 38 32 29 26 24 23 32 38 37 35 32 29 25 23 20 17 15 13 13 13 13 6 355 350
214 231 203 228 244 240 241 244 241 232 218 218 248 228 204 194 191 202 202 195 186 180 190 188 194 218 222 192 211 216 215 204 194 184 177 174 175 183 180 178 178 174 169 164 163 164 168 158 146 144 141 137 130 125 116 111 105 101 97 93 91 87 86 81 76 70 66 61 55 51 46 41 35 27 21 17 15 15 11 14 24 30 27 21 18 15 13 10 7 4 2 3 3 359 352 349 348
215 194 164 228 235 244 247 253 250 240 197 219 256 226 205 190 183 204 208 206 184 171 178 183 198 220 219 234 220 223 213 188 182 175 171 167 168 178 176 173 171 168 167 162 163 163 164 158 150 147 143 138 131 125 118 112 106 101 96 92 89 87 84 79 76 69 62 56 51 45 38 33 25 19 12 8 5 4 3 1 2 9 10 4 1 359 358 356 356 356 354 354 353 348 345 345 342
226 167 189 242 242 251 265 279 275 287 285 260 261 181 187 181 177 209 205 205 183 174 185 187 190 192 196 225 203 209 197 183 177 172 169 166 166 173 175 173 168 164 164 164 164 162 161 160 156 153 147 141 135 128 122 117 111 104 97 93 88 84 84 80 74 67 60 49 42 35 27 20 12 8 1 356 353 351 350 348 344 344 344 342 342 341 339 338 338 341 343 342 341 338 337 337 336
228 174 214 247 257 267 279 288 285 298 288 264 353 110 164 176 193 239 197 198 181 177 203 199 194 180 207 181 170 184 185 185 179 174 172 172 170 171 174 173 169 164 163 165 165 162 160 159 157 154 148 143 138 133 129 124 117 110 103 95 91 87 84 80 72 60 51 39 30 20 12 7 359 354 349 343 338 337 336 333 330 327 324 323 323 324 324 323 323 326 328 327 329 328 328 330 329
219 191 230 250 244 266 259 275 283 286 288 69 58 130 163 181 225 253 195 206 188 186 209 198 199 226 240 196 169 183 189 185 179 179 175 176 173 170 174 174 172 166 164 168 168 165 161 159 155 149 145 143 140 137 132 127 122 115 108 101 96 91 83 71 58 43 32 23 15 7 359 353 349 345 340 334 328 323 320 318 315 313 310 310 311 312 312 312 313 316 317 317 320 321 321 322 322
210 186 226 257 230 243 224 258 306 284 295 60 65 157 178 224 235 222 217 235 202 198 201 190 195 208 247 178 137 169 188 182 177 180 177 176 174 172 175 175 176 171 168 171 172 170 165 161 158 153 149 146 143 140 134 127 125 119 111 106 99 91 79 59 42 28 15 5 355 350 345 342 339 336 333 328 324 318 312 307 302 300 299 299 302 304 304 304 305 308 309 309 313 314 314 315 315
201 181 221 258 235 237 207 205 267 269 302 67 157 170 191 231 222 210 215 228 231 207 199 186 197 200 75 100 121 148 169 172 175 179 177 179 176 175 177 178 180 176 174 175 176 176 171 168 166 164 163 156 149 144 140 132 125 119 114 113 112 103 82 51 28 6 348 337 329 328 328 329 330 328 326 323 320 317 311 305 299 294 293 292 294 295 297 298 298 301 302 303 306 307 307 308 308
188 189 234 247 234 232 199 192 198 285 350 89 163 193 215 235 209 223 228 225 236 219 210 208 208 212 207 166 148 143 154 168 176 180 181 182 179 179 181 183 184 182 181 179 180 180 178 178 177 178 178 173 163 152 148 143 135 126 125 129 133 135 110 341 326 322 319 318 317 318 319 320 321 319 318 317 315 313 310 308 304 299 296 293 291 291 291 292 293 295 297 298 300 302 303 303 303
183 206 240 242 242 238 209 214 209 323 335 87 146 207 233 299 176 222 256 225 226 238 230 232 228 224 227 210 192 173 167 177 182 187 190 188 187 188 189 189 188 187 186 185 184 184 185 188 188 189 189 183 175 167 165 160 155 150 157 168 178 218 254 287 291 295 298 301 303 306 309 310 309 308 308 308 308 308 309 309 308 306 304 301 298 297 294 293 292 292 293 294 296 298 298 299 299
195 222 244 243 247 282 307 264 240 277 316 66 117 203 227 260 143 204 251 210 205 244 235 231 236 237 240 232 220 210 193 193 193 197 200 198 199 198 198 197 193 191 189 189 189 189 192 195 197 198 197 194 187 185 186 186 193 197 210 221 235 254 263 272 276 281 285 286 290 294 297 299 300 301 302 304 306 307 309 310 311 310 309 308 307 307 306 303 300 297 296 296 296 297 297 297 297
200 222 250 256 340 331 239 253 263 258 272 327 234 204 220 237 202 201 252 268 227 244 249 234 236 243 252 248 235 227 215 208 203 202 205 205 204 201 203 201 196 194 192 192 193 195 198 202 205 207 208 209 203 208 220 222 227 233 239 246 251 258 262 268 274 279 283 287 290 294 296 298 301 303 305 307 308 310 312 313 313 313 313 313 313 314 313 310 308 305 304 303 302 301 300 299 298
170 215 267 16 86 276 217 240 249 237 246 251 190 194 223 225 214 209 242 278 253 252 285 271 267 276 275 265 246 235 226 216 210 206 205 206 204 203 204 204 200 197 194 195 198 201 204 209 214 217 220 224 225 232 241 240 240 247 252 257 263 268 273 277 282 285 288 291 294 297 299 301 304 306 308 308 309 311 312 313 313 313 313 314 314 315 314 312 311 310 309 309 307 306 305 303 301
196 211 301 77 176 275 324 248 232 213 216 199 179 213 233 200 216 221 226 260 333 24 343 298 280 282 282 276 251 237 230 221 214 208 206 206 206 207 207 208 205 200 197 199 203 207 211 217 222 226 230 234 239 241 245 248 252 261 267 273 277 280 283 284 287 289 291 293 295 297 299 302 305 306 307 308 308 309 309 308 309 309 310 311 312 312 311 310 311 311 312 311 310 308 307 305 303
236 222 165 184 219 260 290 220 210 204 200 198 217 230 219 200 226 230 231 269 320 311 280 269 276 274 272 271 256 239 230 221 213 208 207 207 207 210 210 209 206 202 200 203 206 211 216 222 227 230 236 240 244 249 254 262 267 273 278 280 283 282 284 286 287 289 290 291 293 295 298 300 302 304 305 305 304 304 303 303 304 305 307 308 309 309 310 311 312 312 312 312 311 310 308 306 304
241 249 152 214 234 238 249 228 232 230 215 230 244 234 218 215 260 262 296 323 311 291 274 271 277 278 269 255 236 223 222 215 210 210 210 210 211 213 212 211 209 205 205 208 210 216 222 226 231 234 239 247 254 259 264 269 272 275 279 279 281 282 284 286 286 288 290 292 295 297 299 301 302 302 301 300 299 299 300 301 303 305 307 308 308 309 310 311 312 311 311 312 311 309 308 307 305
218 248 158 224 246 243 257 248 251 242 231 246 233 240 240 223 264 359 27 355 335 327 304 279 279 275 253 222 203 203 210 211 210 211 211 212 213 216 215 213 212 207 206 208 208 213 221 223 225 229 234 244 250 254 257 261 268 272 277 282 285 287 289 291 293 296 299 301 302 303 304 304 303 302 300 299 299 300 301 303 305 306 308 308 308 310 310 310 311 310 310 309 308 308 307 307 306
202 233 199 233 252 261 273 268 263 244 234 241 221 247 242 224 242 135 23 358 350 356 349 325 310 258 194 180 182 192 200 205 209 210 210 211 213 215 213 210 209 205 202 198 198 197 193 196 192 193 201 206 212 214 218 222 247 277 292 303 302 305 307 308 312 314 315 316 314 313 312 310 307 305 303 303 304 305 306 307 308 309 310 309 309 310 309 309 309 308 308 307 307 307 307 306 306
160 219 265 257 264 280 290 289 274 248 240 225 226 262 131 154 223 83 9 7 13 12 21 42 64 103 131 155 165 176 188 196 202 205 206 202 195 192 186 185 177 160 161 161 154 148 143 145 144 140 141 138 139 144 139 131 104 6 347 341 335 337 339 338 338 337 335 333 331 328 326 324 322 319 317 316 316 316 314 314 313 312 311 310 309 309 308 308 307 306 306 305 305 305 305 305 305
134 281 270 246 241 287 319 299 264 247 242 209 223 271 108 115 80 16 359 17 41 40 52 67 80 95 102 118 128 134 144 153 160 153 150 145 132 129 127 129 136 135 136 136 133 133 133 133 134 131 128 126 124 120 110 93 73 50 34 20 14 10 5 1 357 354 351 348 346 343 341 338 335 331 329 326 324 322 319 317 315 314 312 310 309 308 307 306 305 305 304 304 304 303 304 303 303
129 329 283 251 202 169 24 344 261 229 225 176 215 244 119 109 69 10 360 19 43 51 61 71 82 87 92 101 105 105 106 112 117 112 112 116 120 126 124 126 133 134 129 128 130 132 130 128 127 124 118 117 111 98 87 75 65 52 42 32 25 18 12 8 3 0 358 355 351 348 344 340 336 333 330 327 324 321 318 316 314 312 310 309 308 308 307 307 306 305 305 304 304 303 303 303 303
192 126 295 287 234 182 46 360 250 202 214 165 219 279 96 113 66 9 6 18 31 55 63 72 84 88 93 98 99 100 100 103 107 110 117 121 126 131 130 129 131 128 124 124 127 125 122 121 118 114 108 101 94 84 75 66 55 44 33 24 18 11 7 3 360 358 355 352 349 345 342 337 333 330 327 325 321 318 315 313 311 309 307 307 307 307 307 307 306 305 305 304 302 302 301 301 301
251 163 202 286 274 134 74 26 307 172 140 204 242 293 76 117 47 9 10 18 32 60 67 77 86 91 94 96 97 98 98 103 109 116 123 126 128 130 129 127 125 124 123 122 121 119 117 115 111 106 99 91 82 72 63 53 43 33 23 15 9 4 1 358 355 352 349 347 343 339 336 333 329 326 323 320 317 314 312 309 307 305 304 304 304 304 305 305 304 303 303 302 301 300 299 299 299
12 269 229 159 289 346 87 59 2 29 66 347 269 296 88 100 28 9 12 20 43 69 71 78 83 88 90 90 92 92 96 105 112 116 120 123 123 123 123 122 122 120 119 118 116 116 113 108 105 100 92 81 70 61 54 44 34 25 15 8 2 359 355 351 349 346 343 340 336 333 331 329 325 321 318 315 313 310 308 305 303 302 301 301 300 300 301 300 299 299 299 300 299 298 298 298 297
115 278 295 313 294 317 33 93 38 12 305 355 331 296 19 75 24 14 17 23 53 76 74 77 79 83 85 86 88 88 93 101 105 109 114 117 117 118 119 117 117 116 115 114 113 111 107 102 99 93 84 75 65 57 48 38 28 17 7 359 355 352 347 344 342 339 336 333 331 329 328 325 322 318 315 311 308 305 303 301 299 298 298 298 297 296 296 295 295 295 296 296 296 296 297 297 298
123 285 295 289 260 302 308 149 60 16 295 359 15 265 25 49 27 20 21 28 60 75 75 80 79 82 83 84 86 86 89 92 95 101 107 111 112 113 114 113 113 112 109 108 106 102 98 93 88 83 78 71 61 50 38 27 17 6 354 350 346 341 338 336 334 332 331 328 327 326 325 323 320 317 313 309 305 302 299 297 295 295 294 294 293 293 292 291 291 292 293 293 293 294 295 296 297
308 304 298 299 249 245 280 284 34 16 340 313 296 247 39 34 26 26 26 37 65 75 78 81 81 82 82 83 83 84 86 88 92 100 105 108 109 109 109 109 108 106 101 98 96 93 88 81 73 69 64 54 40 25 13 1 354 346 339 336 334 332 331 330 329 328 327 326 324 324 323 321 319 316 312 309 304 301 298 295 293 292 291 291 291 291 290 290 290 290 290 290 290 291 293 294 295
287 293 288 296 292 274 287 1 39 9 323 335 10 51 40 26 24 28 32 49 67 76 81 80 81 81 80 82 82 83 85 88 95 102 105 105 105 105 104 102 99 98 93 89 87 82 73 63 50 40 32 23 11 360 352 346 342 338 335 334 334 334 331 330 329 327 326 325 322 321 320 318 317 315 311 308 304 301 298 295 293 291 291 291 291 291 290 289 289 289 288 288 289 289 290 292 293
271 268 271 280 288 299 329 33 42 4 317 41 75 69 51 35 28 29 36 56 66 72 79 79 81 81 81 83 83 84 85 90 99 102 101 102 101 100 99 95 93 91 85 76 69 58 48 37 24 17 13 5 357 353 349 345 341 339 339 338 337 336 332 330 328 326 325 324 321 320 319 316 315 313 310 307 304 301 299 296 295 293 292 291 290 290 289 289 288 288 288 288 289 289 289 290 291
277 275 289 287 284 311 17 37 38 23 345 58 107 78 60 49 38 37 44 56 60 67 78 80 83 84 83 85 85 86 87 92 99 100 98 98 96 95 93 88 83 76 66 55 46 36 27 19 11 6 1 355 351 348 345 342 340 339 338 337 334 332 330 327 325 324 323 322 319 318 317 316 314 313 310 307 306 304 302 300 298 296 294 293 292 290 289 288 287 287 288 288 288 288 289 290 290
287 298 291 303 327 324 31 85 78 23 339 1 80 64 68 67 56 50 52 62 63 65 75 81 85 87 85 86 88 89 89 92 97 96 94 93 90 87 81 73 64 54 47 38 30 21 12 6 1 357 352 348 345 342 341 339 337 335 333 332 329 327 325 323 322 321 320 319 317 316 316 316 315 314 311 309 308 307 305 304 303 301 299 297 295 292 290 289 288 287 286 287 287 287 288 288 288
286 326 302 330 11 348 349 74 360 341 334 314 324 89 92 83 74 64 61 71 74 70 74 77 80 86 89 89 89 89 88 89 93 93 90 87 81 75 65 55 45 35 28 21 15 7 3 359 355 351 346 343 340 338 338 337 335 333 331 329 327 325 323 321 320 319 318 318 316 315 315 315 314 313 310 308 307 305 303 303 301 299 298 296 294 292 290 289 289 288 286 286 287 288 288 286 284
43 24 353 346 5 343 304 315 317 309 144 319 304 156 114 78 74 76 75 79 81 77 76 75 76 81 87 88 88 92 93 92 93 90 84 77 67 57 48 39 29 19 15 11 7 1 357 352 347 345 341 339 338 337 336 336 335 334 332 330 328 327 325 323 322 322 322 322 321 320 318 317 316 313 309 307 305 302 300 299 297 296 294 293 292 291 290 290 289 288 288 287 287 288 289 287 285
27 54 24 344 335 315 300 312 316 292 161 54 341 288 130 92 78 80 92 88 83 82 79 80 81 80 82 84 86 92 95 95 92 85 76 64 54 43 33 26 17 12 9 5 359 353 348 343 341 340 339 339 338 337 337 337 337 336 333 331 330 329 328 327 327 327 327 327 326 325 323 321 320 317 312 309 307 304 302 299 297 295 293 291 291 291 291 291 291 290 290 289 288 288 289 289 288
351 62 48 308 308 303 306 320 322 309 327 31 348 300 264 108 87 83 99 99 94 87 81 84 81 76 80 81 82 87 89 89 84 75 65 52 41 30 22 16 10 6 2 355 348 343 339 337 337 337 338 339 338 339 339 339 338 337 334 331 330 330 329 327 327 326 326 326 325 325 324 322 321 318 314 312 310 307 304 301 299 296 295 293 292 292 293 293 294 293 293 292 291 290 290 290 288
357 78 256 293 305 305 315 315 304 321 318 35 41 334 278 120 90 97 107 104 102 90 78 83 81 75 81 82 84 90 88 83 75 62 50 37 27 21 15 9 3 357 350 344 339 335 334 334 335 337 338 339 340 340 339 339 338 336 332 330 329 329 327 325 325 325 325 324 324 325 325 324 323 318 315 314 310 308 305 302 301 298 296 295 294 293 293 294 295 295 295 294 294 294 292 291 289
25 84 292 308 310 306 304 284 277 322 262 113 51 4 296 349 102 126 140 109 101 99 84 85 91 87 86 87 89 91 84 74 61 45 33 25 18 11 5 358 352 347 341 336 332 332 332 334 337 338 339 340 340 340 338 338 337 333 330 328 327 327 325 323 323 323 324 324 324 325 326 326 324 319 317 316 314 312 310 308 307 306 304 302 300 297 295 295 296 296 296 296 295 295 293 292 291
3 282 261 350 154 216 281 287 150 214 216 54 22 354 336 11 103 122 153 101 69 96 109 101 106 105 98 95 92 87 73 56 41 28 20 14 7 359 352 347 343 338 334 330 329 331 334 336 339 340 341 341 340 338 337 337 335 332 329 327 326 326 324 323 323 324 324 324 325 326 326 325 322 319 318 318 317 316 314 314 313 312 311 310 308 306 303 301 300 299 298 297 296 296 295 294 292
295 268 244 176 153 149 157 108 193 231 111 62 13 360 345 343 86 71 35 18 342 282 156 135 131 123 113 106 96 78 53 34 19 13 9 360 351 346 341 337 334 331 328 328 329 333 336 338 340 341 340 339 338 336 336 335 334 332 330 329 327 326 324 324 324 323 324 323 323 324 324 322 319 318 317 316 316 315 314 315 315 313 314 314 313 311 309 307 306 304 302 300 298 298 297 296 293
271 287 290 257 190 176 188 163 181 324 31 79 33 359 308 295 73 47 14 4 334 283 192 156 145 130 118 114 92 49 18 2 358 1 357 346 338 334 330 328 326 325 325 328 331 334 337 339 340 340 339 338 338 336 335 335 334 333 332 330 327 325 324 324 324 324 324 323 323 322 321 320 318 316 315 314 312 311 312 313 313 313 313 313 313 311 310 309 308 306 305 302 300 298 297 296 295
338 356 349 345 356 4 335 2 22 344 14 105 45 350 307 134 72 24 9 15 13 36 129 139 131 120 113 104 51 15 358 350 348 347 341 333 328 324 321 320 320 323 326 330 334 337 339 341 341 341 341 340 338 337 336 336 336 335 333 330 327 326 325 325 325 325 325 324 323 322 320 318 316 314 313 312 311 310 311 312 312 312 311 311 311 310 309 308 308 307 305 304 302 300 298 296 294
14 11 2 8 6 357 349 356 348 321 347 88 19 344 315 123 79 33 26 34 45 73 93 100 98 94 87 59 20 2 353 349 342 334 330 326 321 317 314 315 317 322 328 333 337 339 341 342 343 343 343 340 337 336 337 337 337 335 332 330 328 326 325 325 325 324 323 322 321 320 318 315 313 313 312 311 310 310 311 311 311 310 310 310 309 308 308 307 307 306 305 304 303 301 300 297 294
27 358 354 29 34 356 338 341 339 316 310 310 296 340 344 348 65 64 59 68 72 79 87 85 83 74 55 31 12 355 346 344 338 330 326 320 313 309 308 309 315 323 330 335 338 340 341 342 344 343 341 338 336 337 337 337 336 333 332 330 328 326 325 324 324 323 321 319 319 318 315 311 310 311 311 310 309 310 310 310 310 309 309 309 308 308 307 306 306 305 303 302 302 301 300 298 296
54 302 335 27 21 330 311 335 344 301 295 298 273 58 32 39 95 99 90 89 84 85 91 87 80 66 42 20 4 350 338 338 335 330 323 313 305 302 302 305 315 325 332 336 339 340 342 344 344 341 339 337 337 338 339 339 337 334 333 333 331 329 328 327 326 325 323 321 320 317 312 308 307 309 310 309 309 310 309 309 308 307 307 306 306 306 306 306 305 304 303 301 300 301 300 298 298
329 360 14 15 338 287 305 329 167 255 286 304 78 42 106 123 133 139 139 118 100 93 91 83 74 51 17 360 352 343 336 332 331 330 320 305 297 296 299 305 317 327 333 337 340 342 344 345 342 340 340 340 341 342 343 343 338 334 336 337 336 334 332 331 330 328 326 324 323 320 313 307 306 309 312 312 311 311 310 309 308 307 306 306 306 306 306 305 305 303 302 301 300 301 300 299 298
344 25 20 347 242 244 326 324 289 307 311 312 18 346 293 273 134 150 178 203 162 127 93 65 34 10 351 342 337 333 332 330 331 330 317 301 296 295 298 308 320 328 335 339 342 343 344 344 342 341 342 342 342 342 344 343 338 335 337 338 337 335 333 332 331 330 328 326 325 323 316 309 307 310 313 313 313 313 313 312 310 308 308 307 306 306 306 305 305 304 302 302 301 301 300 298 298
51 65 352 325 285 305 344 346 329 338 323 310 319 56 306 9 45 36 353 333 262 225 327 343 343 346 340 335 333 331 332 331 332 331 316 303 300 297 298 311 323 332 337 340 342 342 342 341 339 339 340 340 340 341 342 341 337 336 337 337 336 334 333 332 331 330 328 327 326 323 318 313 311 313 315 315 315 316 316 316 314 312 311 311 310 308 308 307 305 305 304 303 303 302 300 298 297
76 95 24 14 11 334 349 352 314 317 317 316 315 307 30 82 30 3 13 20 2 284 341 334 331 337 334 330 331 332 333 332 330 328 318 306 299 297 303 317 329 335 338 339 340 339 339 338 338 338 338 338 339 339 339 338 336 335 335 335 334 333 332 331 330 329 327 326 325 322 318 316 316 316 317 317 316 316 317 315 314 313 311 312 312 310 309 308 305 304 304 303 303 302 300 298 297
26 38 31 13 360 35 38 12 15 330 314 314 310 304 13 99 54 21 60 46 48 40 352 333 326 328 329 328 327 329 329 327 326 324 317 305 298 302 313 326 333 336 337 338 337 336 336 336 337 337 337 337 337 338 337 336 335 335 334 334 332 331 331 329 328 327 327 326 324 322 319 318 319 319 317 315 314 314 315 313 310 311 309 308 310 309 308 308 304 303 305 303 302 301 299 298 297
40 34 21 4 1 357 273 52 83 354 301 305 296 294 320 104 120 139 116 80 59 19 334 330 326 322 322 323 323 325 326 325 324 323 315 302 301 313 324 330 334 336 336 335 334 333 334 335 336 336 336 337 336 336 336 336 335 334 334 333 332 331 330 328 328 327 326 326 323 321 321 320 318 319 317 313 312 314 314 312 311 311 310 308 307 307 307 305 303 303 304 303 301 300 299 298 296